FW7842 Weather Reports


time (UTC)temp
F
wind
direction
speed
knots
gust
knots
rain 1hr
in
rain 24hr
in
rain mn
in
humidity
%
barometer
mb
20260504192028 57 0.0 0.0 0.00 0.00 0.00 47 1015.8
20260504191019 58 0.0 0.0 0.00 0.00 0.00 45 1015.7
20260504190053 59 0.0 0.0 0.00 0.00 0.00 44 1015.8
20260504185019 59 0.0 0.0 0.00 0.00 0.00 44 1015.8
20260504184027 60 0.0 0.0 0.00 0.00 0.00 44 1015.6
20260504183020 61 0.0 0.0 0.00 0.00 0.00 42 1015.6
20260504182027 62 0.0 0.0 0.00 0.00 0.00 40 1015.5
20260504181036 64 0.0 0.0 0.00 0.00 0.00 38 1015.4
20260504180048 66 0.0 0.0 0.00 0.00 0.00 37 1015.3
20260504175035 68 0.0 0.0 0.00 0.00 0.00 34 1015.1
20260504174027 70 0.0 0.0 0.00 0.00 0.00 33 1015.2
20260504173019 71 0.0 0.0 0.00 0.00 0.00 30 1015.2
20260504172027 72 0.0 0.0 0.00 0.00 0.00 29 1015.1
20260504171040 73 0.0 0.0 0.00 0.00 0.00 27 1015.2
20260504151035 81 154 2.6 7.0 0.00 0.00 0.00 21 1015.4
20260504141036 82 157 0.9 2.6 0.00 0.00 0.00 20 1016.0
20260504081033 70 160 2.6 5.2 0.00 0.00 0.00 29 1019.9
20260504045035 39 0.0 0.0 0.00 0.00 0.00 87 1020.0
20260504044028 37 0.0 0.0 0.00 0.00 0.00 89 1019.9
20260504043033 35 0.0 0.0 0.00 0.00 0.00 90 1019.9
20260504042028 34 0.0 0.0 0.00 0.00 0.00 91 1019.7
20260504041021 33 0.0 0.0 0.00 0.00 0.00 91 1019.7
20260504040028 33 0.0 0.0 0.00 0.00 0.00 90 1019.6
20260504035033 33 0.0 0.0 0.00 0.00 0.00 90 1019.5
20260504034029 33 0.0 0.0 0.00 0.00 0.00 91 1019.5
20260504033020 33 70 0.0 0.9 0.00 0.00 0.00 90 1019.3
20260504032034 33 0.0 0.0 0.00 0.00 0.00 89 1019.3
20260504031033 33 0.0 0.0 0.00 0.00 0.00 89 1019.4
20260504030028 33 0.0 0.0 0.00 0.00 0.00 87 1019.4
20260504025024 34 0.0 0.0 0.00 0.00 0.00 89 1019.4
20260504024028 34 0.0 0.0 0.00 0.00 0.00 88 1019.3
20260504023032 34 0.0 0.0 0.00 0.00 0.00 88 1019.3
20260504022049 35 0.0 0.0 0.00 0.00 0.00 87 1019.1
20260504021020 35 0.0 0.0 0.00 0.00 0.00 87 1019.2
20260504020114 35 0.0 0.0 0.00 0.00 0.00 87 1019.3
20260504015020 35 0.0 0.0 0.00 0.00 0.00 84 1019.2
20260504014028 36 0.0 0.0 0.00 0.00 0.00 86 1019.2
20260504013021 36 0.0 0.0 0.00 0.00 0.00 89 1019.2
20260504012028 36 0.0 0.0 0.00 0.00 0.00 87 1019.1
20260504011053 36 0.0 0.0 0.00 0.00 0.00 88 1019.1
20260504010029 36 0.0 0.0 0.00 0.00 0.00 87 1019.2
20260504005040 37 0.0 0.0 0.00 0.00 0.00 86 1019.1
20260504004054 37 0.0 0.0 0.00 0.00 0.00 84 1019.3
20260504003020 37 0.0 0.0 0.00 0.00 0.00 83 1019.3
20260504002028 37 0.0 0.0 0.00 0.00 0.00 83 1019.3
20260504001021 38 0.0 0.0 0.00 0.00 0.00 82 1019.3
20260504000048 38 0.0 0.0 0.00 0.00 0.00 82 1019.3
20260503235033 38 0.0 0.0 0.00 0.00 0.00 80 1019.2
20260503234028 38 0.0 0.0 0.00 0.00 0.00 81 1019.4
20260503233033 38 0.0 0.0 0.00 0.00 0.00 81 1019.4
20260503232028 39 0.0 0.0 0.00 0.00 0.00 80 1019.4
20260503231033 39 0.0 0.0 0.00 0.00 0.00 80 1019.4
20260503230028 39 0.0 0.0 0.00 0.00 0.00 80 1019.6
20260503225053 39 0.0 0.0 0.00 0.00 0.00 79 1019.5
20260503224048 40 0.0 0.0 0.00 0.00 0.00 78 1019.4
20260503223033 40 0.0 0.0 0.00 0.00 0.00 77 1019.3
20260503222029 41 0.0 0.0 0.00 0.00 0.00 76 1019.4
20260503221033 41 0.0 0.0 0.00 0.00 0.00 76 1019.6
20260503220034 41 0.0 0.0 0.00 0.00 0.00 75 1019.3
20260503215021 42 0.0 0.0 0.00 0.00 0.00 74 1019.4
20260503214028 42 0.0 0.0 0.00 0.00 0.00 71 1019.4
20260503213033 43 0.0 0.0 0.00 0.00 0.00 71 1019.5
20260503212029 43 0.0 0.0 0.00 0.00 0.00 70 1019.5
20260503211020 44 0.0 0.0 0.00 0.00 0.00 69 1019.4
20260503210028 44 0.0 0.0 0.00 0.00 0.00 69 1019.3
20260503205034 44 0.0 0.0 0.00 0.00 0.00 68 1019.3
20260503204028 45 0.0 0.0 0.00 0.00 0.00 67 1019.2
20260503203033 45 0.0 0.0 0.00 0.00 0.00 66 1019.2
20260503202028 45 0.0 0.0 0.00 0.00 0.00 65 1019.1
20260503201033 46 0.0 0.0 0.00 0.00 0.00 65 1019.3
20260503200028 47 0.0 0.0 0.00 0.00 0.00 64 1019.3
20260503195034 47 0.0 0.0 0.00 0.00 0.00 64 1019.3
20260503194028 48 0.0 0.0 0.00 0.00 0.00 62 1019.4
20260503193021 49 0.0 0.0 0.00 0.00 0.00 61 1019.3